Teterboro, NJ

5:48 PM EDT on September 26, 2016 (GMT -0400)
Teterboro

Weather History for KTEB - April, 2013

Change the Weather History Date:

Monday, April 15, 2013

  Actual Average Record
Temperature  
Mean Temperature 50 °F -  
Max Temperature 57 °F 61 °F 82 °F (2003)
Min Temperature 44 °F 40 °F 35 °F (1997)
Degree Days  
Heating Degree Days 14    
Moisture  
Dew Point 29 °F    
Average Humidity 46    
Maximum Humidity 66    
Minimum Humidity 36    
Precipitation  
Precipitation 0.00 in - - ()
Sea Level Pressure  
Sea Level Pressure 30.32 in    
Wind  
Wind Speed 6 mph (ESE)    
Max Wind Speed 13 mph    
Max Gust Speed 33 mph    
Visibility 10 miles    
Events      
Averages and records for this station are not official NWS values.
T = Trace of Precipitation, MM = Missing Value Source: NWS Daily Summary

Daily Weather History Graph

Daily Weather History Graph

Search for Another Location

Airport or City:

Trip Planner

Search our weather history database for the weather conditions in past years. The results will help you decide how hot, cold, wet, or windy it might be!

Date:

Astronomy

Apr. 15, 2013 Rise Set
Actual Time 6:16 AM EDT 7:36 PM EDT
Civil Twilight 5:48 AM EDT 8:04 PM EDT
Nautical Twilight 5:14 AM EDT 8:38 PM EDT
Astronomical Twilight 4:38 AM EDT 9:14 PM EDT
Moon 9:39 AM EDT (4/15) No Moon Set
Length of Visible Light 14h 16m
Length of Day
13h 19m
Waxing Crescent, 24% of the Moon is Illuminated
Apr 15
Waxing Crescent
Apr 18
First Quarter
Apr 25
Full
May 2
Last Quarter
May 9
New

Hourly Weather History & Observations

Time (EDT) Temp. Windchill Dew Point Humidity Pressure Visibility Wind Dir Wind Speed Gust Speed Precip Events Conditions
12:51 AM 46.0 °F 44.8 °F 26.1 °F 46% 30.23 in 10.0 mi NE 3.5 mph - N/A   Scattered Clouds
1:51 AM 45.0 °F 43.5 °F 26.1 °F 48% 30.23 in 10.0 mi NE 3.5 mph - N/A   Clear
2:51 AM 45.0 °F 43.5 °F 26.1 °F 48% 30.23 in 10.0 mi ENE 3.5 mph - N/A   Mostly Cloudy
3:51 AM 44.1 °F 42.5 °F 25.0 °F 47% 30.25 in 10.0 mi NNE 3.5 mph - N/A   Clear
4:51 AM 45.0 °F 43.5 °F 25.0 °F 46% 30.28 in 10.0 mi NE 3.5 mph - N/A   Clear
5:51 AM 44.1 °F 42.5 °F 26.1 °F 49% 30.30 in 10.0 mi NE 3.5 mph - N/A   Clear
6:51 AM 44.1 °F 42.5 °F 28.0 °F 53% 30.32 in 10.0 mi NNE 3.5 mph - N/A   Clear
7:51 AM 45.0 °F 43.5 °F 27.0 °F 49% 30.35 in 10.0 mi NE 3.5 mph - N/A   Clear
8:51 AM 48.0 °F - 27.0 °F 44% 30.36 in 10.0 mi ENE 4.6 mph - N/A   Overcast
9:51 AM 50.0 °F - 28.0 °F 43% 30.36 in 10.0 mi East 5.8 mph - N/A   Clear
10:51 AM 52.0 °F - 28.9 °F 41% 30.35 in 10.0 mi ESE 10.4 mph - N/A   Scattered Clouds
11:51 AM 53.1 °F - 28.9 °F 40% 30.34 in 10.0 mi East 6.9 mph - N/A   Clear
12:51 PM 55.0 °F - 30.0 °F 38% 30.32 in 10.0 mi SE 10.4 mph 33.4 mph N/A   Clear
1:51 PM 57.0 °F - 30.9 °F 37% 30.31 in 10.0 mi SSE 12.7 mph 20.7 mph N/A   Clear
2:51 PM 57.0 °F - 30.9 °F 37% 30.31 in 10.0 mi SSE 12.7 mph 17.3 mph N/A   Partly Cloudy
3:51 PM 55.9 °F - 30.9 °F 39% 30.31 in 10.0 mi South 12.7 mph 17.3 mph N/A   Clear
4:51 PM 55.9 °F - 28.9 °F 36% 30.30 in 10.0 mi SSE 12.7 mph 17.3 mph N/A   Clear
5:51 PM 54.0 °F - 30.0 °F 40% 30.32 in 10.0 mi South 9.2 mph - N/A   Mostly Cloudy
6:51 PM 52.0 °F - 28.9 °F 41% 30.32 in 10.0 mi South 9.2 mph - N/A   Partly Cloudy
7:51 PM 51.1 °F - 28.9 °F 43% 30.34 in 10.0 mi South 8.1 mph - N/A   Mostly Cloudy
8:51 PM 50.0 °F - 30.0 °F 46% 30.35 in 10.0 mi South 8.1 mph - N/A   Overcast
9:51 PM 48.9 °F - 35.1 °F 59% 30.37 in 10.0 mi South 3.5 mph - N/A   Overcast
10:51 PM 48.9 °F - 37.0 °F 64% 30.36 in 10.0 mi SE 6.9 mph - N/A   Mostly Cloudy
11:51 PM 48.9 °F - 37.9 °F 66% 30.37 in 10.0 mi SSE 3.5 mph - N/A   Partly Cloudy